Starlink 32380

operational
NORAD ID: 61069 Int'l Des: 2024-164 Owner: SPXS Country: US Constellation: starlink
LEOCIRCULAR

About Starlink 32380

Description loading...

Live Position

Loading 3D Globe...

Upcoming Passes

Altitude History

Altitude vs Time

uPlot chart will show altitude changes over time

Two-Line Element Set

1 61069U 24164V 25350.06580794 -.00000356 00000-0 10600-6 0 9991
2 61069 53.1605 119.5951 0000986 89.6819 270.4295 15.30196277 70679
Epoch: Dec 16, 2025 • Age: 22 hours

Current Status

Altitude 481.1 km
Velocity 7.63 km/s
Sub-Earth Point 53.31°N, 120.37°E
Launch Date Sep 13, 2024
Age 1.2 years
Type internet

Technical Details

Classification Payload
Mass 730.00 kg
Dry Mass 700.00 kg
Total Mass 730.00 kg
Length 0.30 m
Diameter 4.10 m
Span 29.00 m
Shape Box + pan
Manufacturer SPXS
Bus Type Starlink V2M
Phase Status In Orbit
Owner/State SPXS/US

Large Constellations

Loading constellations...